| time (UTC) | temp F | wind direction | speed MPH | gust MPH | rain 1hr in | rain 24hr in | rain mn in | humidity % | barometer mb |
| 20260905222431 | 47 | 103 | 4.0 | 5.0 | 0.00 | 0.02 | 0.00 | 84 | 975.3 |
| 20260905221530 | 47 | 92 | 3.0 | 4.0 | 0.00 | 0.02 | 0.00 | 84 | 975.2 |
| 20260905220630 | 48 | 90 | 4.0 | 5.0 | 0.00 | 0.02 | 0.00 | 84 | 974.9 |
| 20260905215730 | 48 | 97 | 3.0 | 4.0 | 0.00 | 0.02 | 0.02 | 84 | 974.9 |
| 20260905213930 | 48 | 84 | 3.0 | 4.0 | 0.00 | 0.02 | 0.02 | 83 | 974.7 |
| 20260905212130 | 49 | 94 | 3.0 | 4.0 | 0.00 | 0.02 | 0.02 | 83 | 974.4 |
| 20260905211231 | 49 | 90 | 2.0 | 2.0 | 0.00 | 0.02 | 0.02 | 82 | 974.3 |
| 20260905210330 | 50 | 92 | 2.0 | 3.0 | 0.00 | 0.02 | 0.02 | 82 | 974.1 |
| 20260905205430 | 50 | 91 | 3.0 | 4.0 | 0.00 | 0.02 | 0.02 | 82 | 974.0 |
| 20260905204530 | 51 | 98 | 3.0 | 4.0 | 0.00 | 0.02 | 0.02 | 82 | 973.9 |
| 20260905203630 | 51 | 93 | 2.0 | 3.0 | 0.00 | 0.02 | 0.02 | 82 | 973.9 |
| 20260905202730 | 50 | 83 | 2.0 | 3.0 | 0.00 | 0.02 | 0.02 | 81 | 973.9 |
| 20260905201830 | 51 | 71 | 2.0 | 4.0 | 0.00 | 0.02 | 0.02 | 81 | 973.6 |
| 20260905195130 | 52 | 97 | 2.0 | 4.0 | 0.00 | 0.02 | 0.02 | 80 | 973.3 |
| 20260905194230 | 52 | 98 | 2.0 | 3.0 | 0.00 | 0.02 | 0.02 | 79 | 973.2 |
| 20260905193330 | 52 | 127 | 3.0 | 3.0 | 0.00 | 0.02 | 0.02 | 78 | 973.2 |
| 20260905192430 | 52 | 112 | 2.0 | 2.0 | 0.00 | 0.02 | 0.02 | 78 | 972.9 |
| 20260905191530 | 52 | 115 | 1.0 | 2.0 | 0.00 | 0.02 | 0.02 | 77 | 973.0 |
| 20260905185730 | 53 | 135 | 1.0 | 2.0 | 0.00 | 0.02 | 0.02 | 74 | 972.9 |
| 20260905184830 | 53 | 131 | 2.0 | 2.0 | 0.00 | 0.02 | 0.02 | 74 | 972.9 |
| 20260905183931 | 53 | 133 | 3.0 | 3.0 | 0.00 | 0.02 | 0.02 | 74 | 972.7 |
| 20260905183030 | 53 | 135 | 3.0 | 3.0 | 0.00 | 0.02 | 0.02 | 75 | 972.5 |
| 20260905182130 | 53 | 139 | 3.0 | 4.0 | 0.00 | 0.02 | 0.02 | 75 | 972.2 |
| 20260905181230 | 54 | 150 | 4.0 | 4.0 | 0.00 | 0.02 | 0.02 | 74 | 972.1 |
| 20260905175431 | 54 | 123 | 3.0 | 4.0 | 0.00 | 0.02 | 0.02 | 74 | 972.0 |
| 20260905174530 | 55 | 137 | 3.0 | 4.0 | 0.00 | 0.02 | 0.02 | 72 | 971.8 |
| 20260905173630 | 56 | 110 | 4.0 | 8.0 | 0.00 | 0.02 | 0.02 | 70 | 971.7 |
| 20260905172730 | 56 | 153 | 4.0 | 6.0 | 0.00 | 0.02 | 0.02 | 70 | 971.5 |
| 20260905171830 | 56 | 178 | 4.0 | 4.0 | 0.00 | 0.02 | 0.02 | 70 | 971.4 |
| 20260905170930 | 57 | 161 | 4.0 | 4.0 | 0.00 | 0.02 | 0.02 | 69 | 971.3 |
| 20260905170030 | 57 | 162 | 5.0 | 7.0 | 0.00 | 0.02 | 0.02 | 67 | 971.2 |
| 20260905165131 | 58 | 143 | 3.0 | 5.0 | 0.00 | 0.02 | 0.02 | 66 | 971.1 |
| 20260905164231 | 60 | 127 | 5.0 | 8.0 | 0.00 | 0.02 | 0.02 | 63 | 971.0 |
| 20260905163330 | 61 | 119 | 2.0 | 4.0 | 0.00 | 0.02 | 0.02 | 63 | 970.8 |
| 20260905162430 | 61 | 293 | 2.0 | 6.0 | 0.00 | 0.02 | 0.02 | 62 | 970.6 |
| 20260905161530 | 60 | 304 | 3.0 | 6.0 | 0.00 | 0.02 | 0.02 | 65 | 970.4 |
| 20260905160630 | 61 | 225 | 1.0 | 2.0 | 0.00 | 0.02 | 0.02 | 62 | 970.3 |
| 20260905154830 | 61 | 221 | 1.0 | 2.0 | 0.00 | 0.02 | 0.02 | 62 | 970.2 |
| 20260905153931 | 61 | 239 | 1.0 | 2.0 | 0.00 | 0.02 | 0.02 | 62 | 970.1 |
| 20260905153030 | 62 | 236 | 2.0 | 3.0 | 0.00 | 0.02 | 0.02 | 61 | 969.9 |
| 20260905152130 | 62 | 276 | 2.0 | 3.0 | 0.00 | 0.02 | 0.02 | 60 | 969.9 |
| 20260905151230 | 61 | 280 | 2.0 | 3.0 | 0.00 | 0.02 | 0.02 | 61 | 969.8 |
| 20260905150330 | 60 | 296 | 2.0 | 2.0 | 0.00 | 0.02 | 0.02 | 61 | 969.8 |
| 20260905144530 | 61 | 359 | 3.0 | 5.0 | 0.00 | 0.02 | 0.02 | 60 | 969.8 |
| 20260905143630 | 62 | 1 | 5.0 | 7.0 | 0.00 | 0.02 | 0.02 | 58 | 969.6 |
| 20260905142730 | 63 | 41 | 5.0 | 7.0 | 0.00 | 0.02 | 0.02 | 55 | 969.5 |
| 20260905141830 | 65 | 347 | 4.0 | 5.0 | 0.00 | 0.02 | 0.02 | 52 | 969.3 |
| 20260905140931 | 66 | 298 | 5.0 | 7.0 | 0.00 | 0.02 | 0.02 | 50 | 969.1 |
| 20260905140030 | 68 | 253 | 4.0 | 5.0 | 0.00 | 0.02 | 0.02 | 49 | 969.0 |
| 20260905134230 | 65 | 214 | 4.0 | 5.0 | 0.00 | 0.02 | 0.02 | 54 | 968.7 |
| 20260905133330 | 64 | 209 | 4.0 | 6.0 | 0.00 | 0.02 | 0.02 | 56 | 968.8 |
| 20260905132431 | 64 | 257 | 4.0 | 5.0 | 0.00 | 0.02 | 0.02 | 59 | 968.8 |
| 20260905131530 | 61 | 211 | 4.0 | 4.0 | 0.00 | 0.02 | 0.02 | 66 | 968.7 |
| 20260905130630 | 58 | 187 | 4.0 | 4.0 | 0.00 | 0.02 | 0.02 | 70 | 968.6 |
| 20260905125730 | 58 | 199 | 3.0 | 4.0 | 0.00 | 0.02 | 0.02 | 71 | 968.6 |
| 20260905124830 | 58 | 199 | 4.0 | 4.0 | 0.02 | 0.02 | 0.02 | 70 | 968.4 |
| 20260905122130 | 59 | 222 | 2.0 | 2.0 | 0.02 | 0.02 | 0.02 | 67 | 968.4 |
| 20260905121230 | 58 | 195 | 3.0 | 4.0 | 0.02 | 0.02 | 0.02 | 67 | 968.4 |
| 20260905120330 | 59 | 83 | 5.0 | 8.0 | 0.02 | 0.02 | 0.02 | 64 | 968.4 |
| 20260905115431 | 60 | 354 | 6.0 | 9.0 | 0.02 | 0.02 | 0.02 | 65 | 968.4 |
| 20260905113630 | 63 | 292 | 7.0 | 9.0 | 0.00 | 0.00 | 0.00 | 58 | 968.2 |
| 20260905111830 | 63 | 273 | 4.0 | 8.0 | 0.00 | 0.00 | 0.00 | 59 | 967.9 |
| 20260905110930 | 63 | 280 | 3.0 | 5.0 | 0.00 | 0.00 | 0.00 | 61 | 967.9 |
| 20260905110030 | 63 | 321 | 4.0 | 7.0 | 0.00 | 0.00 | 0.00 | 61 | 967.8 |
| 20260905104230 | 62 | 5 | 3.0 | 5.0 | 0.00 | 0.00 | 0.00 | 62 | 967.7 |
| 20260905102431 | 60 | 310 | 6.0 | 7.0 | 0.00 | 0.00 | 0.00 | 65 | 967.7 |
| 20260905101530 | 63 | 349 | 3.0 | 5.0 | 0.00 | 0.00 | 0.00 | 63 | 967.6 |
| 20260905100630 | 61 | 342 | 3.0 | 4.0 | 0.00 | 0.00 | 0.00 | 65 | 967.5 |
| 20260905095730 | 61 | 340 | 2.0 | 4.0 | 0.00 | 0.00 | 0.00 | 66 | 967.5 |
| 20260905094830 | 60 | 328 | 4.0 | 4.0 | 0.00 | 0.00 | 0.00 | 67 | 967.4 |
| 20260905093030 | 61 | 18 | 1.0 | 2.0 | 0.00 | 0.00 | 0.00 | 66 | 967.3 |
| 20260905092130 | 62 | 321 | 1.0 | 3.0 | 0.00 | 0.00 | 0.00 | 65 | 967.2 |
| 20260905091231 | 60 | 314 | 2.0 | 3.0 | 0.00 | 0.00 | 0.00 | 66 | 967.2 |
| 20260905090330 | 60 | 304 | 2.0 | 2.0 | 0.00 | 0.00 | 0.00 | 66 | 967.1 |
| 20260905085430 | 60 | 18 | 2.0 | 3.0 | 0.00 | 0.00 | 0.00 | 68 | 967.1 |
| 20260905084530 | 60 | 46 | 3.0 | 4.0 | 0.00 | 0.00 | 0.00 | 68 | 967.1 |
| 20260905082730 | 58 | 358 | 2.0 | 3.0 | 0.00 | 0.00 | 0.00 | 72 | 966.9 |
| 20260905081830 | 58 | 343 | 2.0 | 3.0 | 0.00 | 0.00 | 0.00 | 73 | 966.8 |
| 20260905080930 | 58 | 66 | 2.0 | 2.0 | 0.00 | 0.00 | 0.00 | 75 | 966.9 |
| 20260905080031 | 56 | 94 | 1.0 | 2.0 | 0.00 | 0.00 | 0.00 | 78 | 966.9 |
| 20260905075130 | 54 | 65 | 1.0 | 2.0 | 0.00 | 0.00 | 0.00 | 81 | 966.9 |
| 20260905074231 | 53 | 71 | 2.0 | 3.0 | 0.00 | 0.00 | 0.00 | 81 | 966.8 |
| 20260905073330 | 53 | 56 | 2.0 | 3.0 | 0.00 | 0.00 | 0.00 | 81 | 966.8 |
| 20260905072431 | 52 | 50 | 2.0 | 2.0 | 0.00 | 0.00 | 0.00 | 82 | 966.7 |
| 20260905071530 | 52 | 57 | 2.0 | 2.0 | 0.00 | 0.00 | 0.00 | 83 | 966.5 |
| 20260905070630 | 50 | 90 | 1.0 | 3.0 | 0.00 | 0.00 | 0.00 | 85 | 966.6 |
| 20260905065730 | 50 | 73 | 2.0 | 3.0 | 0.00 | 0.00 | 0.00 | 84 | 966.5 |
| 20260905064830 | 49 | 93 | 3.0 | 4.0 | 0.00 | 0.00 | 0.00 | 85 | 966.5 |
| 20260905063931 | 49 | 86 | 2.0 | 3.0 | 0.00 | 0.00 | 0.00 | 86 | 966.2 |
| 20260905063030 | 48 | 82 | 2.0 | 3.0 | 0.00 | 0.00 | 0.00 | 86 | 966.1 |
| 20260905062130 | 48 | 85 | 3.0 | 4.0 | 0.00 | 0.00 | 0.00 | 86 | 966.1 |
| 20260905061232 | 47 | 142 | 2.0 | 3.0 | 0.00 | 0.00 | 0.00 | 87 | 966.2 |
| 20260905060330 | 47 | 137 | 3.0 | 4.0 | 0.00 | 0.00 | 0.00 | 87 | 966.0 |
| 20260905055431 | 47 | 109 | 3.0 | 3.0 | 0.00 | 0.00 | 0.00 | 87 | 966.0 |
| 20260905053630 | 46 | 93 | 2.0 | 3.0 | 0.00 | 0.00 | 0.00 | 87 | 965.9 |
| 20260905052731 | 46 | 63 | 2.0 | 3.0 | 0.00 | 0.00 | 0.00 | 87 | 965.8 |
| 20260905051830 | 46 | 48 | 2.0 | 3.0 | 0.00 | 0.00 | 0.00 | 88 | 965.8 |
| 20260905050932 | 46 | 41 | 3.0 | 3.0 | 0.00 | 0.00 | 0.00 | 88 | 965.8 |
| 20260905050031 | 46 | 89 | 4.0 | 5.0 | 0.00 | 0.00 | 0.00 | 88 | 965.6 |
| 20260905045130 | 46 | 89 | 4.0 | 5.0 | 0.00 | 0.00 | 0.00 | 88 | 965.6 |
| 20260905044230 | 46 | 90 | 4.0 | 5.0 | 0.00 | 0.00 | 0.00 | 88 | 965.3 |
| 20260905043331 | 46 | 93 | 4.0 | 4.0 | 0.00 | 0.00 | 0.00 | 88 | 965.5 |
| 20260905042432 | 46 | 88 | 4.0 | 5.0 | 0.00 | 0.00 | 0.00 | 88 | 965.4 |
| 20260905041530 | 46 | 78 | 4.0 | 5.0 | 0.00 | 0.00 | 0.00 | 88 | 965.4 |
| 20260905040630 | 46 | 55 | 3.0 | 5.0 | 0.00 | 0.00 | 0.00 | 88 | 965.5 |
| 20260905035730 | 46 | 88 | 4.0 | 5.0 | 0.00 | 0.00 | 0.00 | 88 | 965.4 |
| 20260905034830 | 46 | 90 | 4.0 | 4.0 | 0.00 | 0.00 | 0.00 | 88 | 965.3 |
| 20260905033932 | 46 | 80 | 4.0 | 5.0 | 0.00 | 0.00 | 0.00 | 88 | 965.3 |
| 20260905032130 | 46 | 73 | 4.0 | 7.0 | 0.00 | 0.00 | 0.00 | 88 | 965.2 |
| 20260905031230 | 46 | 86 | 5.0 | 7.0 | 0.00 | 0.00 | 0.00 | 88 | 965.2 |
| 20260905030331 | 46 | 89 | 4.0 | 5.0 | 0.00 | 0.00 | 0.00 | 87 | 965.0 |
| 20260905025432 | 46 | 85 | 5.0 | 5.0 | 0.00 | 0.00 | 0.00 | 88 | 965.1 |
| 20260905024530 | 46 | 84 | 4.0 | 4.0 | 0.00 | 0.00 | 0.00 | 88 | 965.1 |
| 20260905023631 | 46 | 79 | 4.0 | 5.0 | 0.00 | 0.00 | 0.00 | 87 | 965.0 |
| 20260905022730 | 47 | 90 | 3.0 | 4.0 | 0.00 | 0.00 | 0.00 | 87 | 965.0 |
| 20260905021830 | 47 | 87 | 4.0 | 4.0 | 0.00 | 0.00 | 0.00 | 87 | 964.9 |
| 20260905020931 | 47 | 87 | 4.0 | 4.0 | 0.00 | 0.00 | 0.00 | 88 | 964.7 |
| 20260905020030 | 47 | 83 | 4.0 | 5.0 | 0.00 | 0.00 | 0.00 | 88 | 964.8 |
| 20260905013330 | 46 | 87 | 4.0 | 4.0 | 0.00 | 0.00 | 0.00 | 88 | 964.4 |
| 20260905012431 | 46 | 84 | 4.0 | 4.0 | 0.00 | 0.00 | 0.00 | 88 | 964.5 |
| 20260905011530 | 46 | 83 | 4.0 | 4.0 | 0.00 | 0.00 | 0.00 | 88 | 964.5 |
| 20260905010630 | 46 | 89 | 4.0 | 4.0 | 0.00 | 0.00 | 0.00 | 88 | 964.5 |
| 20260905005731 | 46 | 63 | 4.0 | 4.0 | 0.00 | 0.00 | 0.00 | 88 | 964.5 |
| 20260905004830 | 47 | 54 | 4.0 | 5.0 | 0.00 | 0.00 | 0.00 | 87 | 964.4 |
| 20260905003931 | 47 | 40 | 4.0 | 5.0 | 0.00 | 0.00 | 0.00 | 88 | 964.4 |
| 20260905003031 | 47 | 61 | 4.0 | 6.0 | 0.00 | 0.00 | 0.00 | 87 | 964.4 |
| 20260905002131 | 47 | 73 | 4.0 | 6.0 | 0.00 | 0.00 | 0.00 | 87 | 964.2 |
| 20260905001232 | 47 | 59 | 3.0 | 5.0 | 0.00 | 0.00 | 0.00 | 86 | 964.3 |
| 20260905000332 | 48 | 66 | 4.0 | 5.0 | 0.00 | 0.00 | 0.00 | 86 | 964.2 |
| 20260904235432 | 48 | 78 | 4.0 | 6.0 | 0.00 | 0.00 | 0.00 | 86 | 964.4 |
| 20260904233631 | 48 | 86 | 4.0 | 6.0 | 0.00 | 0.00 | 0.00 | 86 | 964.2 |
| 20260904232731 | 48 | 90 | 4.0 | 7.0 | 0.00 | 0.00 | 0.00 | 86 | 964.3 |
| 20260904231831 | 48 | 90 | 4.0 | 5.0 | 0.00 | 0.00 | 0.00 | 86 | 964.2 |
| 20260904230932 | 49 | 90 | 3.0 | 4.0 | 0.00 | 0.00 | 0.00 | 86 | 964.1 |
| 20260904224231 | 49 | 92 | 3.0 | 4.0 | 0.00 | 0.00 | 0.00 | 86 | 964.3 |
| 20260904223331 | 49 | 88 | 3.0 | 4.0 | 0.00 | 0.00 | 0.00 | 86 | 964.3 |